User: anonymous
Location: Fishcreek Rd Observing Site
(41.1865°N, 81.4271°W)
Time: 12:04:45
(UTC-04:00)
Language:

Iridium 45 - Orbit

View from above orbital plane
View from above orbital plane
View from above satellite
View from above satellite

Ground track
Ground track

The orbit data is extracted from the following two-line orbital elements,

1 25104U 97082A   14240.34811960  .00000331  00000-0  11125-3 0  8686
2 25104 087.0306 333.8723 0002707 104.0640 256.0858 14.34220590873628
Epoch (UTC): 28 August 2014 08:21:17
Eccentricity: 0.0002707
inclination: 87.0306°
perigee height: 776 km
apogee height: 779 km
right ascension of ascending node: 333.8723°
argument of perigee: 104.0640°
revolutions per day: 14.34220590
mean anomaly at epoch: 256.0858°
orbit number at epoch: 87362

The dashed part of the orbit path shows where the satellite is in the earth's shadow,  

DLR